Regional Weather Roundup
Issued by NWS New Orleans/Baton Rouge, LA

Home | Current Version | Previous Version | Graphics & Text | Print | Product List | Glossary On
Versions: 1 2 3 4 5 6 7 8 9 10 11 12 13 14 15 16 17 18 19 20 21 22 23 24 25 26 27 28 29 30 31 32 33 34 35 36 37 38 39 40 41 42 43 44 45 46 47 48 49 50
603
ASUS44 KLIX 301911
RWRLIX
NEW ORLEANS REGIONAL WEATHER ROUNDUP
NATIONAL WEATHER SERVICE NEW ORLEANS LA
200 PM CDT MON MAR 30 2015

NOTE: "FAIR" INDICATES FEW OR NO CLOUDS BELOW 12,000 FEET WITH NO
      SIGNIFICANT WEATHER AND/OR OBSTRUCTIONS TO VISIBILITY.
      SKY/WX - SKY CONDITION AND SIGNIFICANT WEATHER.
      TMP - AIR TEMPERATURE.     DP    - DEWPOINT TEMPERATURE.
      RH  - RELATIVE HUMIDITY.   PRES  - PRESSURE.
      HI  - HEAT INDEX.          WCI   - WIND CHILL INDEX.

*  THESE STATIONS ARE NOT NWS OR FAA STATIONS AND ARE NOT UNDER
   NWS QUALITY CONTROL.

LAZ038-040-048-061>063-065>067-069-302000-
SOUTHEAST LOUISIANA

CITY           SKY/WX    TMP DP  RH WIND       PRES   REMARKS
N.O. AUDUBON     N/A     85  70  60 MISG        N/A
N.O. INTL ARPT PTSUNNY   78  61  55 W12       30.20F
N.O. LAKEFRONT MOSUNNY   76  65  68 NE6       30.21F
SLIDELL        SUNNY     80  62  54 W8        30.19F
BATON ROUGE    PTSUNNY   81  58  45 W13G18    30.19F
BOOTHVILLE     SUNNY     77  64  64 SW10      30.23F
BELLE CHASSE   MOSUNNY   80  59  48 W7G16     30.20F
BOGALUSA*        N/A     83  57  40 W8        30.20F
GALLIANO*      CLEAR     82  63  52 MISG      30.23S
NEW ROADS*       N/A     78  57  47 W10G16    30.19F
GONZALES*        N/A     81  60  48 SW7       30.19F
HAMMOND*       MOSUNNY   84  54  34 SW9       30.20F
HOUMA*         PTSUNNY   81  63  54 W14       30.21F
PORT FOURCHON* CLEAR     77  63  61 SW8G15    30.26F

$$

MSZ070-080>082-302000-
SOUTHERN MISSISSIPPI

CITY           SKY/WX    TMP DP  RH WIND       PRES   REMARKS
MCCOMB         PTSUNNY   79  57  46 W10       30.19F
GULFPORT       PTSUNNY   76  63  64 S12       30.19F
BILOXI         MOSUNNY   76  66  71 S12       30.19F
PASCAGOULA     SUNNY     79  63  57 SW10G22   30.19F
STENNIS ARPT*  PTSUNNY   81  55  41 MISG      30.19F

$$

COASTAL OBSERVATIONS
LAKE AND NEARSHORE STATIONS

STATION/POSITION TIME  TEMP    WIND        PRES    WAVE
                       AIR SEA DIR/SP/G            HT/PER
                 (UTC) (F)     (DEG/KT/KT) (MB)    (FT/S)
PASCAGOULA       1800   72     210/ 13/ 14 1023.0
WAVELAND YACHT   1800   78 66  250/ 11/ 16 1023.0
GRAND ISLE       1800   75 68  210/  4/  7 1024.0
SOUTHWEST PASS   1800   73 54  200/  2/  2 1024.8
NEW CANAL        1800   72     350/  3/  5 1023.9
SHELL BEACH      1800   76 70  220/ 14/ 17 1023.4

OFFSHORE STATIONS

STATION/POSITION TIME  TEMP    WIND        PRES    WAVE
                       AIR SEA DIR/SP/G            HT/PER
                 (UTC) (F)     (DEG/KT/KT) (MB)    (FT/S)
64 S DAUPHIN ISL 1850   71 71  190/ 14/ 16 1024.0    3/ 5

$$




USA.gov is the U.S. government's official web portal to all federal, state and local government web resources and services.